Gabriel Restrepo

Recruteur en chef - Tigres
2 Janv 2028
Dimanche
Processus

Personnalité

Adaptabilité (10) Ambition (4) Controverse (1) Loyauté (6) Pression (8) Professionnalisme (18) Sportivité (19) Tempérament (9)

Profil

Style d'entraînement Démocratique
Diplôme Continental C
Détermination 6
Gestion des joueurs 10
Motivation 7
Discipline 9
Satisfaction professionnelle
100%
Fatigue
0%
Rôle Recruteur en chef
Salaire 40.8K p/s
Contrat 14.03.2029

Performance

Comportement Bon
Efficacité de l'entraînement
24%
Développement des joueurs
45%
Prévention des blessures
25%
Mise en place tactique
10%

Événements récents

A participé à une réunion de recrutement 7j
A participé à une réunion de recrutement 14j
A participé à une réunion de recrutement 21j
A participé à une réunion de recrutement 28j
A participé à une réunion de recrutement 35j
A participé à une réunion de recrutement 42j
A participé à une réunion de recrutement 49j
A participé à une réunion de recrutement 56j

Suivi en cours

111
Joueur Club Statut Capacité Confiance Observé Dernière observation Dernier vote
Andrés Monsalve Leones Actif 100 / 93 44% 1 20.12.2027 -
Darwin Torres Barranquilla Actif 71 / 94 44% 1 02.12.2027 -
Yulián Montaño Depor Actif 85 / 72 44% 1 01.12.2027 -
Leyner Liñan Barranquilla Actif 83 / 86 44% 1 02.06.2027 -
Jéferson Medina Fortaleza CEIF Actif 98 / 94 41% 1 07.12.2026 -
Ángel Zapata Tijuana Actif 85 / 115 40% 2 29.11.2026 -
Juan Yangali San Telmo Actif 117 / 114 40% 2 27.11.2026 -
Iván Cabrera Arsenal Actif 107 / 95 40% 1 25.11.2026 -
Fernando Rodríguez Almirante Brown Actif 109 / 112 40% 1 24.11.2026 -
Osciel De La Cruz Chiapas Actif 74 / 76 40% 1 24.11.2026 -
Gabriel Díaz Patronato Actif 122 / 120 40% 1 23.11.2026 -
Mauro Osores San Martín SJ Actif 116 / 112 40% 4 21.11.2026 -
Iván Rojas Aguilas Doradas Actif 118 / 122 40% 1 21.11.2026 -
Fernando Bersano Madryn Actif 109 / 104 40% 2 19.11.2026 -
Fernando Duré Estudiantes Actif 124 / 102 40% 1 18.11.2026 -
Matías Machado Racing Actif 114 / 102 40% 1 17.11.2026 -
Marcio Gómez Racing Actif 95 / 98 40% 1 17.11.2026 -
Pedro Silva Torrejón Gimnasia La Plata Actif 124 / 125 40% 1 16.11.2026 -
Alan Forneris Racing Club Actif 101 / 131 40% 1 15.11.2026 -
Luis Olivera Defensores Unidos Actif 96 / 101 40% 1 15.11.2026 -
Pedro Pedraza Pachuca Actif 104 / 102 40% 4 14.11.2026 -
Fernando Miranda Colegiales Actif 94 / 117 40% 2 14.11.2026 -
Fabricio Corbalán Gimnasia La Plata Actif 130 / 109 40% 1 13.11.2026 -
Pablo Cardona Cortulua Actif 114 / 109 40% 1 13.11.2026 -
Francisco Facello Chacarita Juniors Actif 122 / 101 40% 2 10.11.2026 -
Cristian Gorgerino Alvarado Actif 98 / 113 40% 2 09.11.2026 -
Facundo Silvera Montevideo City Torque Actif 100 / 112 40% 1 07.11.2026 -
Facundo López Morón Actif 115 / 95 40% 1 04.11.2026 -
Matías Sepúlveda Lanús Actif 126 / 113 40% 1 02.11.2026 -
Matías Bazzi Talleres Actif 105 / 97 40% 2 01.11.2026 -
Alcides Benítez Belgrano Actif 110 / 129 40% 1 01.11.2026 -
Lautaro Pertusatti River Plate Actif 100 / 103 40% 2 29.10.2026 -
Santiago Briñone San Martín Actif 127 / 120 40% 1 29.10.2026 -
Vicente Poggi Godoy Cruz Actif 131 / 122 40% 1 27.10.2026 -
Edwin Cerrillo Club America Actif 103 / 102 40% 1 27.10.2026 -
Damián Adín San Miguel Actif 125 / 110 40% 1 26.10.2026 -
Esteban Valencia Cobresal Actif 99 / 109 40% 1 23.10.2026 -
Franco Malagueño Colegiales Actif 102 / 115 40% 1 23.10.2026 -
Jorge Berlanga Pachuca Actif 134 / 112 40% 2 21.10.2026 -
Erik de los Santos Racing Actif 98 / 119 40% 2 21.10.2026 -
Facundo Nadalín San Martín SJ Actif 130 / 111 40% 2 19.10.2026 -
Samuel Lucero Defensa y Justicia Actif 117 / 122 40% 2 18.10.2026 -
Tomás Porra Barracas Central Actif 102 / 108 40% 1 17.10.2026 -
Facundo Ardiles Estudiantes Actif 115 / 109 40% 1 16.10.2026 -
Felipe Montero La Equidad Actif 131 / 105 40% 1 15.10.2026 -
Franco Quinteros Estudiantes Actif 102 / 122 40% 1 13.10.2026 -
Sebastián Guzmán Deportes Tolima Actif 123 / 106 40% 1 13.10.2026 -
Tomás Ferreyra Defensores Unidos Actif 100 / 101 40% 2 10.10.2026 -
Sheyko Studer Independiente Rivadavia Actif 129 / 134 40% 1 10.10.2026 -
Álex Vázquez Racing Actif 107 / 105 40% 1 07.10.2026 -
Alan Olinick Racing Actif 116 / 112 40% 1 07.10.2026 -
Diego Magallanes Defensores Actif 95 / 93 40% 1 04.10.2026 -
Emanuel Cecchini Juventud Actif 113 / 108 40% 1 04.10.2026 -
Facundo Castet Colón Actif 117 / 110 40% 1 03.10.2026 -
Gino Olguín Ferro Carril Oeste Actif 107 / 121 40% 1 02.10.2026 -
Lisandro Montenegro Chacarita Juniors Actif 123 / 103 40% 1 02.10.2026 -
Santiago Esquivel Banfield Actif 125 / 113 40% 1 01.10.2026 -
Ismael Cortez Gimnasia y Esgrima Actif 127 / 102 40% 1 29.09.2026 -
Facundo Di Biasi Gimnasia La Plata Actif 114 / 119 40% 1 29.09.2026 -
Ricardo Echeverría Santos Laguna Actif 132 / 137 40% 2 27.09.2026 -
Abel Bustos Racing Actif 119 / 118 40% 1 25.09.2026 -
Brian Nievas Chaco For Ever Actif 119 / 110 40% 1 25.09.2026 -
Misael Tarón Ferro Carril Oeste Actif 124 / 114 40% 1 24.09.2026 -
Siro Rosané Estudiantes Actif 115 / 119 40% 1 24.09.2026 -
Jean Franco Fuentes Metropolitanos Actif 104 / 106 40% 2 23.09.2026 -
Federico Pérez Agropecuario Argentino Actif 105 / 105 40% 1 23.09.2026 -
David Morosini Juventud Actif 100 / 101 40% 1 22.09.2026 -
Diego Osio Deportivo La Guaira Actif 107 / 121 40% 1 22.09.2026 -
Yolfran Caricote Metropolitanos Actif 99 / 114 40% 1 21.09.2026 -
Vicente Concha Iquique Actif 84 / 88 40% 1 21.09.2026 -
Cristopher Rodríguez Estudiantes de Merida Actif 120 / 117 40% 2 19.09.2026 -
Facundo Briñón Atenas Actif 107 / 113 40% 1 19.09.2026 -
Santiago Corbo Miramar Misiones Actif 117 / 105 40% 2 18.09.2026 -
Nicolás Fernández Maipú Actif 109 / 114 40% 1 18.09.2026 -
Felipe Chiappini River Plate Actif 117 / 109 40% 1 17.09.2026 -
Ian Garguez Palestino Actif 105 / 120 40% 1 17.09.2026 -
Joel Poiso Deportivo Maldonado Actif 108 / 112 40% 1 16.09.2026 -
Alejo Macelli Cerro Actif 122 / 98 40% 1 16.09.2026 -
Bryan Rivera Estudiantes de Merida Actif 101 / 111 40% 1 15.09.2026 -
Bautista Barros Schelotto Gimnasia La Plata Actif 109 / 110 40% 1 15.09.2026 -
Agustín Maidana San Marcos de Arica Actif 95 / 104 40% 1 13.09.2026 -
Nicolás Latorre Miramar Misiones Actif 96 / 110 40% 1 12.09.2026 -
Luis Ruíz Estudiantes de Caracas Actif 100 / 98 40% 1 10.09.2026 -
Mauro Martín Progreso Actif 107 / 91 40% 1 10.09.2026 -
Antonio Castillo Cobresal Actif 105 / 100 40% 1 08.09.2026 -
Segundo Pachamé Plaza Colonia Actif 98 / 103 40% 1 08.09.2026 -
Jorge Espejo Universidad de Concepcion Actif 115 / 120 40% 1 05.09.2026 -
Cristián Díaz Antofagasta Actif 75 / 102 40% 1 05.09.2026 -
Francisco Manenti Metropolitanos Actif 89 / 101 40% 1 04.09.2026 -
Rivaldo Lozano Atlas Actif 101 / 114 40% 1 01.09.2026 -
Andrés Micolta Pachuca Actif 123 / 103 40% 1 31.08.2026 -
Cristhián Rivas Estudiantes de Merida Actif 120 / 114 40% 1 31.08.2026 -
Hugo Martínez Libertad Actif 118 / 103 40% 1 30.08.2026 -
Santiago Simón Toluca Actif 137 / 140 40% 2 26.08.2026 -
Miguel Pernía Carabobo Actif 96 / 100 40% 1 24.08.2026 -
Martín Villarroel Santiago Wanderers Actif 88 / 106 40% 1 22.08.2026 -
Kevin Palacios Santos Laguna Actif 126 / 88 40% 1 21.08.2026 -
Álvaro Martínez Sportivo Luqueno Actif 81 / 112 40% 1 20.08.2026 -
Brayan Morales Trujillanos Actif 94 / 98 40% 1 20.08.2026 -
Mauricio Cardillo San Lorenzo Actif 100 / 104 40% 1 16.08.2026 -
Enzo Ferrario Audax Italiano Actif 91 / 105 40% 1 15.08.2026 -
Julián Marchio San Martín SJ Actif 117 / 119 40% 1 15.08.2026 -
Agustín Heredia Boca Juniors Actif 108 / 116 40% 1 14.08.2026 -
Jesús Yendis Caracas Actif 110 / 97 40% 2 12.08.2026 -
Rafael Sangiovani Metropolitanos Actif 120 / 91 40% 1 11.08.2026 -
Iván Moreno Leon Actif 106 / 126 40% 1 10.08.2026 -
Diego Mercado San Martín SJ Actif 100 / 101 40% 1 08.08.2026 -
Teun Gijselhart Deportivo La Coruña Actif 96 / 99 40% 1 08.08.2026 -
Pablo Ortíz Tijuana Actif 86 / 80 40% 1 06.08.2026 -
Alonso Tamariz Ayacucho Actif 83 / 93 40% 1 04.08.2026 -
Mauricio Isais Pachuca Actif 130 / 128 40% 1 04.08.2026 -